Snowfall_Accumulation
1.3 1.5 1.7 1.9 2.1 2.3 3.2 2.9 3.3 2.8 3.0 3.5 3.5 3.5 3.6 3.7 3.9 4.2 4.0 4.1 4.3 4.4 5.3 5.7 5.7 5.2 4.6 4.1 4.7 4.4 3.9 3.8 3.7 3.5 3.7 3.7 3.9 4.7 4.2 4.8 7.4 8.6 5.7 1.9 0.8 0.7 0.7 0.5 0.5 0.9 0.9 1.6 1.9 1.8 1.4 0.9 0.9 1.0 1.1 1.2 1.4 1.7 1.8
1.5 1.5 1.6 1.9 1.9 2.0 2.2 3.2 3.3 3.3 3.6 3.9 3.9 3.9 3.9 4.6 5.2 5.0 5.0 4.6 5.1 4.5 4.7 5.3 6.0 5.6 5.3 4.9 6.0 5.7 5.6 5.1 4.6 4.5 4.6 4.2 4.4 4.8 4.6 3.7 5.7 6.9 5.9 4.6 1.6 1.2 0.6 0.7 0.4 1.0 0.6 1.4 1.4 1.9 1.8 1.8 1.5 1.3 1.2 1.3 1.4 1.7 1.8
1.8 1.8 1.8 1.8 1.7 1.7 2.0 2.2 2.5 2.3 3.1 3.7 3.9 4.0 3.9 4.0 4.4 4.8 5.0 4.9 4.7 4.5 4.5 5.3 5.8 5.8 5.3 5.1 6.5 6.3 6.2 5.6 5.7 5.0 5.1 4.9 3.9 4.2 3.7 3.5 4.2 6.0 6.8 5.0 3.5 1.7 1.6 1.3 1.0 1.2 1.3 1.1 1.3 1.3 1.1 2.0 2.3 2.1 2.0 1.8 1.7 1.8 1.9
1.8 1.9 1.9 2.1 2.2 2.5 2.0 2.1 1.9 2.1 2.6 2.9 2.9 3.6 4.1 3.7 3.6 3.9 4.4 4.8 4.7 4.7 5.2 5.8 6.2 6.2 5.9 6.2 7.0 6.9 6.7 6.7 6.6 6.6 6.4 5.9 4.7 4.2 3.7 3.0 2.9 3.7 5.4 4.8 4.8 2.9 2.4 1.7 1.7 1.3 1.1 1.2 1.1 1.6 2.1 2.0 2.3 2.3 2.7 2.3 2.3 2.1 2.5
2.1 2.3 2.4 2.3 2.1 1.9 1.8 1.9 1.8 2.1 2.1 2.1 2.3 2.7 2.9 3.3 3.7 3.8 3.9 4.1 4.4 5.0 5.4 5.6 5.9 5.6 5.7 6.2 7.7 7.5 7.6 7.4 7.9 8.1 8.3 8.4 7.2 6.8 5.9 5.2 4.7 4.8 4.6 6.3 6.2 4.4 2.4 1.8 1.8 1.5 1.6 1.4 2.1 2.3 2.6 2.6 3.1 3.2 3.6 3.4 3.0 2.7 2.6
2.9 2.8 2.6 2.4 2.3 2.2 2.5 2.2 2.2 2.3 2.8 2.2 2.0 2.1 2.3 2.6 2.7 2.7 3.0 3.4 3.8 4.0 4.5 5.3 5.3 5.1 5.5 6.0 7.2 7.5 7.1 7.9 9.1 9.1 9.4 9.7 9.7 9.6 8.8 9.0 8.5 7.5 7.7 7.9 7.4 5.8 4.7 2.5 2.6 2.6 2.4 2.1 2.4 2.6 3.1 3.9 4.0 3.5 4.1 4.8 5.4 4.7 3.7
3.3 3.1 2.9 2.7 2.7 2.6 2.5 2.5 2.4 2.4 2.3 2.3 2.3 2.5 2.6 2.7 2.6 2.5 2.5 2.6 2.7 2.8 3.2 3.6 4.0 4.4 4.6 5.5 6.2 6.8 6.8 6.9 7.1 8.2 9.2 9.4 9.8 9.4 10.5 12.2 12.4 11.5 10.9 10.5 10.1 8.7 6.4 5.3 3.6 3.1 3.8 2.4 1.8 2.0 2.3 3.6 4.7 5.8 4.9 4.8 4.8 5.1 4.4
3.7 3.3 3.0 3.2 3.1 2.8 2.7 2.8 2.8 2.7 2.8 2.8 2.7 2.9 3.1 2.8 3.2 3.4 3.2 3.1 2.8 2.7 3.0 3.0 3.1 3.2 3.3 3.6 4.0 4.6 4.8 5.4 6.8 7.4 8.9 8.2 8.5 9.6 11.6 13.1 12.6 12.5 12.6 12.9 12.3 10.8 8.9 6.4 5.3 4.2 3.3 3.1 3.2 3.8 3.7 3.3 4.1 5.7 5.4 5.4 5.1 4.8 5.0
4.0 3.9 4.0 3.3 3.2 3.5 2.9 3.4 3.2 3.1 3.5 3.6 3.6 3.9 4.8 4.6 5.0 5.1 5.2 4.7 4.2 3.8 3.6 3.4 3.4 3.2 3.5 3.1 3.0 3.2 3.7 4.4 5.3 7.0 9.0 8.5 8.4 10.3 12.0 13.3 13.4 13.9 14.2 13.9 13.0 12.0 8.5 7.9 6.7 5.7 5.1 4.8 4.9 5.5 5.4 3.6 3.5 4.9 4.2 4.1 4.5 5.1 4.9
4.3 4.7 6.0 4.4 4.1 3.8 4.2 3.9 3.7 3.5 4.0 4.6 7.2 9.2 10.1 10.6 10.4 9.8 9.5 9.2 8.3 7.0 5.8 5.0 4.4 3.7 3.0 3.0 3.3 3.7 4.2 5.1 5.8 6.3 7.5 9.5 10.0 10.9 12.6 13.7 14.5 14.3 13.3 13.4 14.5 12.7 10.0 10.1 8.6 6.4 5.3 5.0 4.1 3.1 2.5 3.0 3.9 4.9 4.3 3.9 4.8 4.7 5.5
5.8 5.5 5.3 5.1 5.2 5.5 5.2 4.9 4.3 4.0 5.3 9.3 12.0 14.1 15.8 14.9 13.0 10.9 10.2 9.5 8.9 8.1 6.2 5.0 4.4 4.2 3.8 3.7 3.9 4.2 4.6 5.3 5.5 6.6 7.5 7.9 8.7 10.4 13.7 17.0 18.2 16.6 13.7 14.0 13.7 10.9 9.4 9.3 8.2 6.0 5.1 5.1 4.4 3.6 3.7 3.8 4.0 5.0 5.2 6.6 7.2 8.2 6.0
7.0 5.7 5.4 5.6 5.8 6.1 5.8 5.7 4.6 5.2 9.3 11.5 15.6 20.5 20.2 18.2 16.3 14.0 12.3 10.9 10.2 9.0 8.0 7.1 6.2 5.7 5.1 5.1 5.0 5.2 5.5 6.2 6.4 7.0 7.3 8.0 9.3 10.5 12.8 15.9 16.3 17.8 17.2 14.9 14.9 14.0 11.6 10.0 8.4 5.7 4.6 4.7 4.7 5.3 4.7 5.0 5.3 6.5 7.6 7.9 7.9 7.1 7.0
6.7 6.6 6.6 6.8 7.7 7.1 6.5 6.5 5.3 6.8 10.6 13.0 18.2 22.9 25.5 21.4 17.8 15.6 13.1 10.9 9.7 8.8 8.0 7.5 7.9 7.4 6.8 5.8 4.8 5.4 5.5 6.0 6.1 5.9 6.5 7.4 8.1 8.6 10.7 15.0 20.1 19.1 16.0 17.1 18.0 17.5 13.8 9.9 8.2 7.9 5.8 4.2 4.8 5.6 7.6 6.6 7.6 8.0 8.2 8.5 8.4 7.3 5.7
8.0 7.8 8.5 8.8 9.3 9.0 8.6 8.1 6.9 7.7 12.5 17.4 20.6 25.5 29.0 23.5 20.0 17.0 14.4 12.0 10.1 8.7 7.8 7.3 7.5 7.9 7.4 6.1 5.5 5.7 5.9 6.1 6.5 6.6 6.8 7.7 8.6 9.0 8.4 9.7 10.5 10.7 10.4 12.6 16.0 18.2 17.3 10.0 8.0 7.2 5.8 6.4 5.9 7.9 10.2 9.9 10.4 9.6 10.3 10.2 10.1 7.2 6.7
9.5 9.6 10.0 10.2 11.3 11.2 11.0 9.4 7.8 10.7 16.1 19.3 22.4 26.3 31.5 26.3 22.0 18.0 14.3 11.4 9.9 9.2 8.5 7.6 7.2 7.2 7.0 6.4 6.4 6.2 6.0 6.7 7.4 7.6 8.2 8.2 8.0 7.3 6.7 6.1 6.0 7.2 9.2 10.2 9.8 11.6 12.5 10.5 8.2 7.4 5.9 5.4 6.8 9.6 10.2 9.6 10.1 9.7 10.7 11.0 9.7 9.9 9.1
8.5 9.0 9.1 8.8 9.6 10.7 10.6 8.3 7.7 12.0 16.5 18.6 23.2 29.0 28.0 27.2 22.1 17.8 14.2 11.4 9.6 8.6 7.6 7.0 7.3 8.1 8.2 7.3 6.8 6.0 9.1 8.3 8.7 10.2 11.1 10.3 8.2 6.8 5.7 5.3 4.6 7.0 8.7 7.5 9.3 9.8 9.6 9.3 8.9 10.0 10.8 10.6 10.9 10.8 10.4 10.6 11.5 12.5 14.6 16.9 18.1 15.6 9.3
6.8 7.1 8.0 8.4 8.5 9.0 8.4 7.7 7.6 9.7 15.0 16.9 21.7 31.2 33.2 29.1 22.4 17.6 14.3 11.1 9.4 8.5 7.7 7.0 7.0 7.5 8.1 7.6 6.9 6.4 10.4 12.9 14.0 16.0 15.9 14.7 12.2 9.2 7.8 6.5 4.3 7.4 14.9 22.0 27.2 30.8 25.7 22.8 23.1 24.1 27.1 26.8 26.0 19.4 18.7 21.7 25.0 22.4 15.5 17.2 19.1 13.8 8.7
7.1 7.1 7.4 8.2 8.4 8.2 8.7 7.8 6.9 8.3 12.5 15.8 20.1 28.3 30.7 28.8 25.5 19.7 15.4 13.0 10.8 9.7 9.1 7.3 7.3 7.3 8.0 8.1 6.9 9.0 12.5 17.0 17.6 23.5 21.1 18.5 16.4 13.8 11.4 7.5 4.3 3.6 4.2 10.8 18.1 22.5 24.0 27.1 24.4 23.3 23.5 26.2 25.3 23.9 17.6 25.1 31.3 19.9 12.9 15.2 13.9 13.6 7.9
7.3 7.1 7.1 7.2 7.3 7.2 8.3 8.2 7.0 6.9 10.8 14.2 20.9 25.4 27.8 27.0 24.1 21.3 16.5 14.2 12.8 10.2 8.6 7.3 6.3 7.1 8.6 8.3 8.6 14.1 17.7 24.6 20.7 24.2 20.5 15.8 16.0 16.8 14.5 9.1 5.8 4.7 4.7 4.9 6.2 7.4 8.4 10.1 12.6 11.8 12.2 11.1 12.3 14.1 16.6 17.5 19.9 16.7 16.3 17.7 14.0 11.7 10.3
6.2 6.4 6.4 6.5 7.6 8.2 8.1 8.2 7.5 7.4 8.1 15.8 22.7 23.5 24.1 25.2 24.5 23.5 19.7 16.7 14.4 14.0 12.0 9.3 8.1 6.8 7.2 11.6 17.0 17.3 23.0 24.5 31.2 26.0 24.3 19.6 20.3 19.1 14.2 7.4 5.7 5.8 6.4 6.5 6.2 5.8 5.1 6.1 6.4 8.2 10.0 10.0 9.4 8.8 9.9 12.4 11.7 13.1 14.8 15.8 14.6 12.0 10.8
6.0 6.6 7.0 6.8 7.2 8.1 8.3 8.2 8.0 7.0 8.4 16.4 19.8 18.5 25.3 25.1 22.4 18.7 17.1 17.0 16.5 13.9 12.0 10.2 8.6 7.3 6.0 7.4 11.8 16.0 21.9 24.3 30.0 30.2 24.1 24.0 22.7 16.5 11.5 10.0 12.4 10.4 7.6 8.2 7.3 6.4 5.7 5.5 6.0 7.5 9.5 10.7 9.9 9.2 8.9 10.2 8.1 8.3 8.4 11.5 14.0 13.9 12.5
6.8 6.9 6.3 5.9 6.3 7.5 7.8 7.3 6.9 7.6 8.1 13.3 17.6 18.9 21.4 23.6 22.0 16.9 18.5 20.0 15.9 11.8 9.8 8.0 7.1 7.1 6.3 6.6 10.4 17.3 25.4 27.9 29.9 32.6 24.7 23.1 26.2 27.1 23.6 15.4 12.9 10.8 9.8 8.9 8.3 7.9 7.4 6.9 6.7 7.2 7.9 10.1 10.7 9.7 9.2 9.1 8.2 6.9 6.0 5.4 6.2 8.6 10.7
7.0 6.9 6.5 6.4 6.8 7.1 7.1 6.9 6.7 7.5 7.4 9.1 13.6 16.0 18.6 21.7 24.1 21.6 17.7 18.3 17.0 12.7 9.6 7.7 7.4 6.7 6.9 9.1 17.9 23.8 28.7 28.9 30.3 26.9 26.5 27.3 25.2 24.4 20.7 19.2 19.6 16.9 15.1 12.5 10.4 9.6 10.2 8.5 6.8 7.1 6.9 6.8 8.9 9.0 7.6 8.1 7.6 7.2 6.6 6.7 5.7 5.2 5.5
7.3 6.8 7.2 7.6 7.4 7.0 6.5 6.4 7.0 6.6 5.9 6.6 9.2 14.0 18.9 19.2 22.5 22.1 18.5 16.4 14.7 11.9 10.5 9.5 8.8 10.0 12.6 19.5 20.1 21.8 24.8 26.6 23.4 23.0 26.2 25.4 22.1 16.4 16.4 19.6 21.9 21.7 20.3 16.7 13.8 12.4 10.4 8.5 6.0 5.6 5.4 5.8 5.3 7.4 8.7 8.5 8.6 7.6 7.2 7.0 6.3 5.3 5.1
6.8 7.5 7.4 7.3 7.3 7.3 6.9 6.7 7.0 6.3 5.8 5.8 6.6 8.9 11.7 14.5 17.1 16.1 13.9 13.8 11.6 10.8 10.9 9.9 11.2 14.2 16.1 17.5 19.0 19.6 17.8 17.1 15.2 15.5 19.2 16.8 16.6 17.0 17.2 19.0 18.2 17.0 17.4 20.2 18.9 14.1 9.9 6.7 5.0 4.4 4.2 4.2 5.3 6.7 9.2 10.7 10.7 10.2 8.6 8.1 7.5 7.0 5.7
7.8 7.5 7.1 7.4 7.0 7.4 7.8 8.1 6.9 6.1 6.2 6.5 7.0 7.6 8.1 10.0 10.3 10.8 10.3 11.1 10.2 7.9 7.1 7.5 10.7 8.5 8.6 9.4 10.3 12.2 14.7 18.4 13.7 11.4 10.8 11.8 13.4 14.9 17.2 17.7 15.8 13.4 13.7 14.3 12.1 11.2 10.1 7.4 5.4 5.5 5.8 5.6 6.3 8.0 9.4 10.7 12.2 13.2 12.3 10.6 10.5 10.0 9.3
8.4 8.8 9.0 9.1 8.5 8.7 8.7 8.3 6.5 6.2 6.8 8.4 10.2 10.4 9.8 9.7 9.9 9.9 9.1 9.5 10.4 9.2 7.9 7.2 7.7 8.1 8.5 8.7 8.6 10.5 12.2 11.5 9.4 9.6 12.5 11.4 10.7 14.1 15.2 18.5 13.4 11.2 11.3 10.1 9.3 9.1 8.0 7.5 8.0 7.8 9.5 10.0 9.1 9.1 8.3 8.2 9.4 11.8 12.0 10.3 9.9 9.9 10.1
13.2 14.2 14.5 15.3 13.3 12.7 10.5 8.7 7.3 7.2 9.3 13.8 14.3 13.6 11.8 11.2 11.5 12.6 12.6 10.2 9.8 9.8 9.0 9.6 9.1 9.3 9.4 10.7 11.6 11.8 12.2 12.0 11.6 10.3 9.4 9.3 10.4 11.7 12.7 13.8 13.0 12.3 12.8 11.7 11.2 11.6 10.7 11.7 11.7 12.9 11.6 10.0 9.3 7.8 6.8 7.2 8.6 9.2 11.4 12.4 12.1 15.0 13.8
22.9 21.0 21.2 18.8 17.5 18.2 16.7 13.6 13.0 11.2 11.9 15.7 15.6 16.4 16.8 16.9 15.3 14.0 13.8 10.9 10.3 12.0 11.6 10.1 10.2 10.1 9.9 9.4 9.4 9.9 10.2 9.8 9.4 8.9 9.1 10.5 11.0 10.4 10.6 10.9 12.9 14.4 12.6 11.0 12.3 14.0 13.9 13.6 13.2 12.1 10.5 10.7 10.6 9.0 7.6 7.4 9.3 9.8 10.3 12.2 14.8 16.7 13.5
27.8 27.0 25.6 24.0 17.8 17.0 21.5 20.6 16.1 13.1 18.4 20.5 21.0 23.7 19.9 18.5 20.1 17.3 15.3 12.5 11.5 11.1 11.7 10.5 9.5 9.0 8.9 8.3 7.8 8.1 7.9 7.7 7.9 8.3 8.5 9.3 10.0 10.0 10.4 10.9 11.6 12.1 11.7 11.0 12.1 12.7 13.7 13.0 12.3 11.2 10.5 10.7 10.7 9.9 8.6 8.0 9.7 11.2 11.3 14.0 16.7 17.1 14.7
24.2 25.8 21.2 21.4 24.6 19.7 13.6 12.1 11.3 11.4 18.1 21.4 25.9 25.7 22.6 23.6 20.7 19.9 18.5 15.1 14.5 13.0 11.0 10.1 9.0 8.6 7.8 7.4 7.2 7.4 7.1 7.2 7.7 7.6 7.8 8.4 8.8 9.1 9.7 10.2 10.5 11.5 11.2 11.2 11.7 12.4 13.1 12.3 11.9 11.0 9.5 9.6 8.6 8.6 9.3 10.2 11.1 10.9 12.5 13.3 13.1 13.9 12.3
19.6 21.3 23.8 20.5 21.2 24.0 21.2 15.6 14.0 14.5 21.8 25.3 28.6 29.2 24.4 23.2 23.7 22.0 19.0 15.5 15.1 15.2 11.8 9.5 8.4 8.4 8.0 7.3 7.5 6.8 6.3 7.0 8.0 8.3 8.5 8.2 7.5 6.8 6.8 7.8 9.2 10.1 10.6 10.6 10.8 10.8 11.7 12.6 12.5 11.7 10.4 9.2 8.7 8.7 9.0 10.0 11.8 13.0 15.3 14.3 13.0 12.3 10.9
11.3 13.4 15.9 16.9 20.0 22.1 23.4 19.9 18.6 18.6 22.5 24.6 26.2 24.6 19.6 18.9 18.4 15.3 14.3 12.3 11.7 11.2 10.5 9.4 8.9 8.7 8.2 8.0 7.7 7.3 7.5 7.9 8.6 7.8 7.4 7.1 7.4 6.6 5.6 5.7 6.0 7.2 8.6 9.4 9.8 10.2 10.6 12.2 11.5 12.1 11.8 11.4 9.9 9.9 9.7 8.5 9.1 9.1 9.8 11.4 13.1 12.0 10.9
7.9 7.6 8.2 8.5 10.6 13.2 15.0 14.0 14.1 14.2 14.2 16.1 18.1 17.6 17.7 18.7 15.9 12.4 13.7 12.8 12.4 10.9 10.2 8.8 8.5 8.2 8.5 8.5 8.6 8.8 8.8 8.9 8.8 7.4 6.8 6.0 5.7 5.7 5.5 4.8 5.0 6.0 7.1 7.8 8.5 9.4 9.3 10.0 10.5 11.8 12.6 13.2 11.7 10.4 9.4 9.6 8.7 8.4 10.2 11.3 10.8 10.2 9.5
7.3 6.1 6.7 8.7 8.8 10.0 11.1 10.1 9.9 11.5 13.8 15.8 16.4 16.6 19.3 15.7 14.3 14.9 12.2 9.7 9.9 10.5 10.1 9.3 8.6 8.4 8.0 8.0 8.4 8.6 8.7 8.6 8.5 7.6 7.2 6.7 6.0 5.2 5.2 5.7 5.3 5.2 5.6 6.1 6.8 7.7 8.2 8.5 9.6 10.1 10.2 10.6 10.9 11.0 11.3 10.0 9.4 9.1 9.0 9.4 9.8 9.3 8.9
7.9 7.1 6.5 7.6 7.3 7.6 9.6 10.1 9.6 10.4 13.3 17.5 17.5 17.6 16.3 17.6 14.9 11.9 10.6 9.3 8.7 9.2 9.6 9.5 9.7 9.5 9.3 9.6 10.0 10.0 9.5 9.0 9.1 8.9 8.7 8.0 7.5 6.6 6.1 6.3 6.2 5.9 5.6 5.4 5.5 6.2 6.7 7.4 8.3 9.3 10.4 10.2 9.8 9.4 8.8 8.2 8.0 8.0 8.2 8.6 8.9 9.8 9.3